Wind_Speed
3 3 3 14 0 3 9 8 10 7 4 2 2 2 6 6 6 9 10 10 9 9 9 11 13 16 18 21 21 21 22 22 24 24 24 24 25 24 23 21 21 20 20 18
2 2 5 4 3 8 6 13 5 5 4 2 3 6 7 10 7 8 8 8 9 8 9 11 12 14 17 19 21 23 23 22 23 23 23 22 22 24 23 23 22 22 18 18
6 3 8 2 4 9 5 6 8 5 4 2 2 6 8 12 15 15 15 11 9 9 7 6 7 10 13 14 15 17 19 20 18 21 20 22 26 25 25 25 25 22 20 19
6 7 4 1 7 7 5 6 8 9 6 2 3 4 7 9 12 14 14 13 11 11 9 8 8 8 6 8 13 16 18 20 21 24 23 23 25 24 25 24 23 23 22 22
4 4 8 6 5 6 6 5 8 4 2 4 4 1 6 2 10 13 17 19 17 13 14 19 24 23 21 20 13 10 14 19 21 23 23 23 25 25 23 24 27 24 24 25
6 2 4 4 9 9 12 9 7 2 1 2 2 2 5 2 7 11 15 17 18 18 19 22 24 24 24 24 22 18 14 10 12 17 21 24 25 25 25 26 29 28 27 28
8 8 4 6 6 3 1 3 2 2 1 2 1 1 6 9 12 11 10 12 14 17 18 20 21 21 20 18 18 18 17 14 11 11 15 20 24 26 28 28 29 32 31 30
3 3 7 7 4 3 3 2 1 1 3 4 2 4 6 9 10 6 6 8 12 14 16 16 18 20 18 16 13 14 15 16 15 15 16 19 22 26 29 30 31 32 34 33
6 3 2 5 4 4 2 1 2 4 1 1 3 5 3 7 9 5 5 6 7 12 15 14 14 16 15 14 14 15 16 17 18 19 20 21 23 26 28 30 32 33 34 36
3 5 1 1 2 6 3 3 2 1 3 3 4 4 6 15 16 8 5 3 6 10 12 11 11 13 15 16 18 18 19 19 20 21 22 24 26 27 29 32 34 35 35 35
3 2 3 2 4 6 2 1 1 2 2 2 1 3 8 17 16 10 4 1 8 11 12 9 10 13 13 14 16 18 20 21 22 24 25 26 26 27 29 31 33 35 37 38
1 3 4 2 3 1 3 2 4 3 4 1 1 4 5 13 18 7 3 2 9 9 10 9 11 11 11 14 19 20 22 23 26 28 30 30 31 30 29 29 30 31 35 37
7 2 4 1 0 2 4 4 5 2 1 7 5 3 5 13 15 12 7 8 11 11 11 10 9 9 12 17 22 26 28 32 35 33 31 32 34 35 35 34 33 32 33 33
2 2 1 2 4 5 5 10 11 9 4 5 10 6 10 13 14 19 11 12 10 10 10 8 5 9 13 18 24 35 36 34 34 34 36 37 36 37 38 38 37 37 37 37
1 2 3 6 5 2 4 9 13 16 13 9 5 15 13 13 12 12 10 5 7 10 7 6 9 11 15 21 31 40 33 32 35 39 41 39 40 39 38 38 38 38 39 39
1 2 2 3 4 5 3 10 14 15 16 18 17 22 15 23 15 7 6 7 10 8 7 11 14 14 20 30 40 38 37 38 40 42 46 47 45 42 42 40 39 39 38 39
4 6 3 3 3 3 8 20 21 17 16 16 16 14 8 3 5 7 11 11 11 8 8 13 15 17 25 34 33 33 37 39 41 41 42 45 45 43 41 41 41 40 39 39
5 4 2 3 2 5 2 3 2 17 19 18 17 11 8 6 7 12 15 14 11 8 9 11 15 20 27 29 30 33 37 37 38 40 41 41 43 44 42 41 41 39 39 40
2 4 3 4 5 10 9 6 7 7 7 20 24 16 20 11 6 13 11 13 11 9 10 14 21 23 26 29 31 33 36 36 36 37 38 38 39 43 43 43 43 41 40 40
1 2 2 3 4 8 1 3 9 7 9 10 20 15 15 15 6 5 12 10 14 16 18 22 21 25 28 31 31 33 34 37 38 36 38 39 40 41 41 40 39 38 39 41
7 4 11 7 6 7 8 11 10 5 3 5 12 14 15 7 10 8 9 14 17 22 22 22 25 30 31 32 33 34 34 38 37 38 40 39 40 41 42 41 38 38 37 38
13 11 7 8 8 13 18 12 9 3 6 15 17 12 10 13 16 16 17 18 18 22 23 26 31 35 36 36 37 36 37 37 37 39 41 41 40 42 43 41 40 36 35 37
7 8 8 15 9 0 35 5 20 9 17 20 17 15 14 18 19 18 21 22 23 26 29 31 33 38 40 39 39 39 40 36 37 40 42 44 43 41 42 44 42 40 36 35
7 4 4 3 9 16 25 32 12 27 16 15 15 15 16 22 22 23 25 28 29 31 34 33 36 41 43 41 41 41 40 37 38 42 43 45 46 47 45 44 43 42 40 38
4 18 9 6 8 5 19 37 33 36 24 27 25 24 26 29 31 30 28 29 31 33 37 37 38 42 45 44 44 43 40 39 40 42 45 48 50 51 51 48 45 45 43 38
13 8 10 7 14 15 15 16 23 36 33 34 35 29 30 32 29 26 29 29 34 36 35 38 40 41 43 43 42 41 40 40 41 43 47 49 51 52 51 48 48 44 44 40
Wind_Direction
99 214 176 159 75 181 145 135 123 100 83 249 188 311 320 300 262 278 272 268 265 263 265 259 249 245 245 249 251 260 264 262 264 268 269 277 277 280 285 287 292 295 306 303
111 62 358 106 109 93 129 117 101 96 77 294 77 27 57 36 13 340 318 308 301 290 279 269 260 257 253 254 258 260 259 263 266 267 272 274 280 283 285 286 288 285 289 298
80 21 336 15 151 116 39 147 151 122 125 92 333 88 76 80 62 57 60 56 42 29 5 326 283 274 269 267 268 261 262 260 259 266 269 274 278 283 284 286 283 280 280 285
49 332 33 35 127 164 115 69 109 127 173 168 348 132 88 110 67 40 34 39 33 25 20 14 19 5 325 288 264 263 264 266 262 261 267 270 278 280 285 282 279 280 271 274
131 105 105 88 10 4 113 101 92 88 139 174 31 129 137 175 53 58 61 52 44 43 48 58 60 52 43 37 17 325 287 271 268 265 265 264 267 273 272 269 272 278 274 269
102 134 50 69 51 89 126 104 85 92 237 135 52 318 143 66 102 87 66 57 58 63 64 60 52 45 37 31 28 27 20 352 304 281 272 267 269 271 271 273 273 279 278 273
31 31 26 21 80 87 103 165 113 138 155 80 45 275 76 113 119 91 76 63 68 67 56 42 33 27 22 17 13 9 6 3 349 316 289 277 275 275 275 275 271 279 280 278
96 120 3 343 26 22 59 337 322 168 167 131 182 153 135 124 137 107 77 84 73 49 34 26 14 12 11 11 9 6 359 346 337 323 307 292 284 282 283 282 280 279 283 284
150 145 308 31 348 339 96 47 8 96 36 220 126 107 125 184 177 184 126 104 53 21 17 11 11 7 7 6 0 348 338 329 322 315 308 302 297 290 286 286 286 284 284 286
139 105 13 336 346 49 5 89 153 319 145 185 151 218 161 188 190 193 148 101 16 8 9 11 16 8 0 351 343 338 333 328 322 317 315 310 304 298 294 291 287 283 285 285
165 126 154 167 199 172 154 284 10 60 352 170 193 222 156 182 182 188 154 358 3 1 4 7 5 3 4 2 1 356 349 343 338 335 331 326 320 313 305 299 295 291 289 286
169 116 151 142 116 265 280 226 213 219 190 194 8 259 162 174 181 171 199 287 344 355 12 15 4 4 4 358 355 352 348 341 335 330 327 326 326 324 320 316 311 303 295 290
177 187 121 104 254 190 226 194 207 148 131 195 173 223 204 180 190 211 235 302 330 360 356 343 341 339 340 346 347 343 337 334 334 331 325 321 319 316 313 312 313 312 309 302
161 140 237 182 96 136 191 196 199 197 190 202 217 171 187 198 211 224 286 318 333 329 324 325 325 328 335 339 341 337 329 324 325 323 321 319 318 315 311 309 308 306 303 302
283 120 84 57 66 355 239 198 197 212 215 213 207 224 230 233 245 276 310 297 301 306 302 299 302 312 322 329 329 332 330 327 322 318 317 315 312 313 312 310 308 305 302 300
57 117 92 39 4 6 305 263 235 231 238 255 258 272 283 260 264 252 229 265 285 289 289 296 290 303 313 320 321 329 330 324 320 317 315 316 318 317 312 307 304 303 305 304
131 145 165 162 336 307 274 232 227 234 236 235 238 246 212 135 167 226 250 251 263 254 280 292 283 298 311 311 323 328 327 323 319 316 313 311 314 314 313 309 307 302 302 302
141 118 39 128 246 225 223 158 241 234 243 229 245 240 186 252 244 232 238 251 238 247 279 282 280 296 305 317 322 324 323 323 320 319 319 316 313 312 310 305 303 303 300 297
314 134 117 173 216 313 291 178 180 184 264 216 234 235 239 243 204 257 239 212 220 252 272 289 296 299 309 314 318 319 322 322 319 323 319 317 314 311 310 306 303 301 298 295
286 285 166 165 221 225 303 145 138 141 278 209 206 215 204 163 220 275 186 228 262 271 288 300 298 299 306 313 316 314 318 319 320 320 317 316 316 316 314 312 309 304 299 295
160 163 202 197 249 271 243 156 166 146 238 124 161 175 169 190 233 255 265 276 273 282 292 300 301 302 303 306 309 310 313 316 320 314 311 312 317 318 315 311 308 306 302 296
175 170 183 193 225 257 159 137 193 170 147 148 146 162 199 248 249 239 264 278 279 286 295 302 303 303 304 305 306 308 306 315 314 312 308 307 310 314 315 312 308 307 304 301
202 194 176 192 206 182 180 197 199 171 175 181 183 212 240 260 259 264 274 284 290 294 298 301 300 301 301 300 301 304 304 307 310 307 307 305 304 306 311 312 310 305 304 303
217 186 218 132 222 224 213 225 241 219 213 211 221 238 251 262 269 275 283 291 295 299 302 304 301 302 300 300 300 301 304 305 305 304 305 305 306 307 307 307 306 303 300 298
176 151 177 254 267 277 236 231 235 236 242 239 246 255 263 271 280 285 289 294 300 305 306 306 305 302 299 302 301 301 304 305 304 305 306 306 306 305 304 303 301 299 297 295
185 173 189 222 190 208 242 248 251 236 239 251 255 266 272 271 278 287 290 298 303 304 306 305 304 303 303 303 302 302 305 306 306 302 303 304 303 303 304 304 302 296 296 296
Height
1497 1496 1492 1494 1499 1492 1496 1497 1502 1512 1519 1517 1514 1518 1521 1522 1524 1525 1524 1525 1526 1528 1530 1532 1532 1532 1532 1532 1534 1534 1536 1537 1538 1538 1538 1537 1536 1536 1537 1536 1536 1535 1534 1533
1499 1500 1501 1498 1500 1497 1499 1503 1513 1518 1519 1518 1519 1523 1528 1526 1526 1526 1524 1525 1525 1526 1527 1529 1530 1530 1530 1530 1531 1532 1533 1534 1534 1535 1535 1535 1533 1532 1533 1532 1532 1532 1530 1530
1496 1507 1502 1500 1503 1504 1510 1504 1510 1510 1519 1523 1524 1529 1526 1530 1528 1528 1527 1527 1528 1527 1526 1527 1527 1526 1527 1527 1528 1529 1530 1531 1533 1533 1533 1531 1531 1529 1530 1529 1527 1527 1527 1526
1506 1506 1504 1504 1505 1498 1506 1505 1507 1513 1517 1521 1526 1535 1531 1528 1528 1530 1530 1529 1528 1526 1526 1526 1523 1524 1524 1522 1523 1525 1526 1526 1526 1528 1528 1528 1527 1526 1524 1522 1520 1520 1521 1519
1515 1510 1506 1508 1510 1501 1511 1509 1511 1512 1514 1516 1526 1523 1529 1526 1531 1533 1532 1531 1530 1528 1527 1525 1525 1526 1524 1520 1521 1522 1521 1521 1522 1522 1523 1523 1522 1521 1520 1519 1515 1514 1514 1513
1504 1508 1509 1509 1511 1507 1511 1513 1516 1518 1517 1525 1533 1527 1527 1527 1536 1534 1536 1536 1534 1533 1530 1528 1528 1528 1526 1525 1524 1522 1521 1519 1518 1518 1518 1519 1518 1517 1515 1513 1511 1509 1508 1507
1504 1510 1511 1511 1511 1514 1513 1512 1522 1527 1526 1527 1539 1528 1530 1533 1533 1535 1538 1537 1537 1534 1532 1530 1531 1530 1529 1527 1525 1524 1521 1519 1517 1516 1514 1514 1512 1511 1509 1507 1506 1503 1501 1499
1517 1525 1521 1521 1520 1515 1518 1516 1513 1520 1523 1523 1538 1528 1534 1535 1537 1538 1537 1537 1536 1537 1533 1532 1530 1528 1526 1525 1525 1523 1520 1519 1517 1516 1514 1512 1509 1507 1505 1504 1502 1499 1496 1495
1514 1525 1525 1524 1522 1522 1520 1519 1524 1528 1544 1529 1523 1530 1535 1536 1538 1537 1537 1538 1538 1535 1532 1532 1529 1528 1526 1525 1523 1521 1520 1518 1515 1514 1512 1509 1506 1504 1501 1499 1497 1495 1493 1491
1512 1523 1525 1525 1525 1524 1523 1525 1528 1526 1533 1532 1526 1526 1514 1531 1531 1533 1533 1535 1535 1533 1532 1532 1529 1527 1524 1523 1522 1519 1516 1514 1512 1510 1507 1505 1502 1499 1497 1494 1492 1490 1487 1486
1510 1511 1528 1527 1525 1527 1531 1532 1533 1525 1528 1525 1526 1515 1504 1516 1522 1526 1530 1531 1530 1529 1529 1528 1526 1525 1523 1521 1519 1517 1515 1512 1510 1508 1505 1502 1499 1496 1492 1489 1486 1482 1480 1478
1512 1512 1521 1522 1528 1530 1526 1518 1517 1518 1533 1525 1526 1517 1509 1512 1517 1523 1523 1526 1527 1528 1526 1526 1526 1522 1521 1519 1517 1515 1514 1512 1509 1506 1503 1499 1497 1493 1488 1483 1480 1476 1472 1470
1510 1519 1524 1526 1526 1524 1521 1519 1515 1518 1519 1526 1527 1510 1512 1513 1517 1518 1520 1522 1524 1522 1522 1524 1522 1520 1519 1518 1516 1514 1511 1508 1505 1502 1500 1496 1492 1487 1484 1479 1474 1471 1467 1462
1508 1511 1508 1504 1509 1511 1520 1518 1517 1516 1522 1516 1510 1504 1507 1510 1511 1514 1515 1517 1519 1520 1521 1520 1519 1518 1516 1515 1513 1511 1508 1504 1500 1496 1492 1489 1485 1481 1476 1472 1468 1463 1459 1455
1510 1515 1516 1517 1517 1516 1514 1515 1517 1515 1510 1512 1499 1501 1500 1500 1504 1509 1514 1516 1517 1517 1517 1516 1516 1514 1513 1512 1509 1506 1502 1498 1495 1490 1485 1483 1479 1473 1468 1464 1459 1456 1451 1445
1512 1521 1520 1530 1522 1523 1526 1517 1512 1511 1510 1504 1506 1498 1503 1503 1506 1509 1511 1512 1512 1512 1512 1512 1512 1511 1509 1507 1504 1500 1496 1493 1487 1482 1477 1472 1469 1466 1462 1456 1451 1446 1443 1437
1515 1521 1521 1522 1534 1532 1523 1504 1503 1502 1500 1500 1505 1496 1500 1504 1506 1507 1508 1508 1507 1508 1508 1508 1507 1507 1506 1504 1500 1495 1491 1486 1481 1475 1470 1465 1462 1456 1451 1448 1442 1439 1434 1429
1516 1518 1519 1533 1536 1519 1486 1494 1497 1493 1490 1492 1492 1493 1497 1502 1504 1504 1505 1504 1504 1504 1503 1503 1503 1502 1500 1497 1493 1488 1484 1480 1474 1469 1464 1459 1454 1447 1443 1437 1432 1429 1426 1421
1512 1511 1529 1525 1522 1502 1473 1484 1492 1492 1476 1478 1480 1488 1494 1499 1500 1496 1496 1499 1500 1499 1498 1497 1496 1494 1492 1490 1486 1481 1476 1472 1468 1461 1457 1452 1446 1440 1434 1429 1423 1418 1415 1411
1513 1511 1510 1532 1518 1504 1476 1485 1484 1487 1482 1466 1471 1478 1486 1493 1493 1489 1492 1493 1494 1495 1493 1489 1488 1488 1486 1482 1477 1474 1468 1463 1459 1455 1449 1444 1438 1432 1425 1420 1414 1409 1404 1399
1508 1512 1508 1520 1514 1492 1476 1482 1485 1489 1467 1464 1467 1473 1480 1484 1484 1486 1486 1488 1487 1490 1488 1483 1480 1479 1478 1473 1468 1463 1459 1454 1451 1446 1441 1436 1430 1424 1417 1410 1405 1399 1394 1389
1487 1497 1503 1511 1517 1497 1469 1480 1474 1460 1460 1463 1467 1473 1477 1479 1480 1480 1481 1481 1480 1482 1480 1477 1473 1470 1469 1465 1460 1454 1448 1445 1441 1437 1432 1427 1422 1417 1410 1403 1396 1391 1385 1379
1482 1468 1473 1476 1467 1462 1458 1455 1456 1457 1460 1463 1464 1469 1473 1475 1475 1473 1473 1473 1474 1473 1470 1468 1465 1461 1459 1458 1453 1446 1440 1436 1431 1426 1421 1416 1412 1407 1401 1394 1387 1381 1377 1371
1474 1471 1467 1468 1452 1454 1455 1455 1455 1458 1459 1461 1462 1466 1468 1469 1468 1467 1466 1465 1465 1464 1462 1460 1456 1451 1447 1447 1443 1438 1432 1428 1422 1415 1410 1405 1400 1394 1389 1383 1378 1371 1367 1364
1451 1459 1460 1456 1448 1448 1446 1446 1447 1452 1454 1456 1458 1460 1463 1463 1462 1460 1458 1457 1457 1456 1453 1450 1446 1441 1437 1436 1432 1428 1423 1418 1412 1404 1398 1392 1388 1382 1375 1370 1366 1360 1356 1354
1439 1436 1440 1427 1430 1429 1431 1436 1439 1444 1446 1450 1451 1454 1456 1458 1457 1456 1452 1451 1449 1446 1443 1440 1436 1433 1429 1427 1423 1419 1415 1410 1403 1395 1388 1382 1376 1370 1364 1359 1351 1349 1344 1341